Location: Newark
(44.4156°N, 12.1972°E)
Time: 16:12:37
(UTC+00:00)

STARLINK-1116 - Pass Details

Date: 31 January 2020
Orbit: 348 x 351 km, 53.0° (Epoch: 18 February)

Event Time Altitude Azimuth Distance (km) Brightness Sun altitude
Rises 17:07:46 0° 306° (NW) 2,159 7.3 -9.2°
Reaches altitude 10° 17:09:49 10° 311° (NW) 1,314 6.0 -9.5°
Maximum altitude 17:12:41 52° 29° (NNE) 442 2.9 -10.0°
Enters shadow 17:15:04 14° 106° (ESE) 1,118 4.7 -10.4°
